STARLINK-33978, 63832

Orbit data source: Space-Track

STARLINK-33978, 63832 is a payload satellite owned by SpaceX/Seattle (US) in LEO that was launched on Sun, 04 May 2025 UTC via an FALCON 9 launch vehicle from the Air Force Eastern Test Range (AFETR). Payload-class satellites include a variety of spacecraft equipped with specific instruments for various scientific and technological missions. These include communications satellites like Starlink; space stations such as the ISS; scientific satellites like the Hubble; Earth observation satellites from companies like Planet Labs, Umbra, and HawkEye 360; GPS; miniature CubeSats for education and research; and military/defense satellites.

Loading next visibility...
Identifier
63832, 2025-092AE
Orbit
LEO
Country
Flag of USUS
Related business
Manufacturer
SpaceX/Seattle
Mission
Operational Commercial Communications
Bus & Motor
STARLINK V2MO, Unknown motor
Mass
575 kg wet, ~530 kg dry
Launch date (UTC)
2025-05-04 (1 year ago)
Launch vehicle
FALCON 9
Launch site
Air Force Eastern Test Range (AFETR)
Object type
Payload
Rocket body
Debris
Shape & HBR
Box + 1 Pan, 17.7 m
Radar Cross Section
41.120 m², Large (>1 m²)

Expand to show TLE details & history
Last TLE update: 2 days ago

TLE from 2 days ago
0 STARLINK-33978
1 63832U 25092AE  26252.21113464  .00016108  00000-0  59333-3 0  9991
2 63832  43.0002 215.9582 0000519 260.8895  99.1898 15.27595564 76734
Epoch: 2026-09-09T05:04Z
TLE epoch observation values (Epoch: 2026-09-09T05:04:02.032Z)
Latitude
-0.00003°
Longitude
151.68325°
Altitude
482.835 km
Speed
7.626 km/s
True Right ascension
14h 23m 49s
True Declination
0° 00' 00"
Sunlit
Object was in daylight at epoch
Visualization orbit readout
Latitude
Unknown
Longitude
Unknown
Altitude
Unknown
Speed
Unknown
Apparent Right ascension
Unknown
Apparent Declination
Unknown
Sunlit
N/A
Visualization observer readout
Local Sidereal Time
18:41:55
Azimuth
Unknown
Elevation
Unknown
Doppler factor
Unknown
Orbital elements
Apogee altitude
485.304 km
Perigee altitude
484.591 km
Semi-major axis
6,863.085 km
Eccentricity
0.00005
Inclination
43.0002°
RAAN
215.9582°
Arg. of periapsis
260.8895°
True anomaly
99.19567°
Mean anomaly
99.1898°
Eccentric anomaly
99.19274°
Mean motion
3.81737 °/min
Orbital period
94.31 mins
BSTAR
0.00059333
Loading maneuver chart data...
Computing Atmospheric mass density...
Loading historical data...
Loading historical data...
Loading historical data...
Loading historical data...
Loading historical data...
Loading historical data...
Loading historical data...

Documentation

Showing up to 5 results
|